Location: Vancouver
(49.2500°N, 123.1330°W)
Time: 02:29:28
(UTC-07:00)

ERS-2 - Visible Passes

Search period start: 24 October 2017 00:00
Search period end: 03 November 2017 00:00
Orbit: 500 x 504 km, 98.6° (Epoch: 23 October)

Date Brightness Start Highest point End Pass type
(mag) Time Alt. Az. Time Alt. Az. Time Alt. Az.
24 Oct 4.9 19:42:28 10° SSW 19:45:22 22° W 19:48:17 10° NW visible
25 Oct 5.4 07:07:38 10° NE 07:10:24 20° E 07:13:08 10° SE visible
25 Oct 4.0 19:22:55 10° SSW 19:26:19 34° W 19:29:45 10° NNW visible
26 Oct 5.8 06:49:41 10° ENE 06:51:18 12° E 06:52:53 10° ESE visible
26 Oct 2.9 19:03:41 10° S 19:07:20 58° WSW 19:11:01 10° NNW visible
27 Oct 2.1 18:44:42 10° SSE 18:48:24 83° ENE 18:52:07 10° NNW visible
28 Oct 2.3 18:25:55 10° SE 18:29:30 49° ENE 18:33:06 10° N visible
28 Oct 5.5 20:01:16 10° SW 20:03:28 15° W 20:05:41 10° NW visible
29 Oct 4.7 19:41:20 10° SSW 19:44:22 24° W 19:47:25 10° NW visible
30 Oct 5.4 07:06:48 10° NE 07:09:23 18° E 07:11:57 10° SE visible
30 Oct 3.7 19:21:51 10° S 19:25:19 38° W 19:28:49 10° NNW visible
31 Oct 5.9 06:49:07 10° ENE 06:50:15 11° E 06:51:23 10° ESE visible
31 Oct 2.6 19:02:39 10° S 19:06:19 65° WSW 19:10:01 10° NNW visible
01 Nov 2.0 18:43:41 10° SSE 18:47:22 75° ENE 18:51:05 10° NNW visible
01 Nov 5.8 20:21:02 10° W 20:21:32 10° W 20:22:02 10° W visible
02 Nov 2.4 18:24:56 10° SE 18:28:28 44° ENE 18:32:00 10° N visible
02 Nov 5.3 19:59:57 10° SW 20:02:22 17° W 20:04:49 10° NW visible
